Estación de El Refugio

Ultimos registro cada 15 minutos 85
Estación Fecha / Hora Temperatura Humedad Lluvia Velocidad Dirección Radiación Presion
85 El Refugio 31-08-2026 21:15 11,1 84 0 0 266 0 1042,9
84 El Refugio 31-08-2026 21:00 11,9 81 0 0 266 0 1042,8
83 El Refugio 31-08-2026 20:45 11,9 81 0 0 266 0 1042,8
82 El Refugio 31-08-2026 20:30 12,1 80 0 0 266 0 1042,7
81 El Refugio 31-08-2026 20:15 12,3 79 0 0 266 0 1042,8
80 El Refugio 31-08-2026 20:00 13,7 75 0 0 266 0 1042,7
79 El Refugio 31-08-2026 19:45 13,7 75 0 0 266 0 1042,7
78 El Refugio 31-08-2026 19:30 14,4 73 0 0 266 0 1042,8
77 El Refugio 31-08-2026 19:15 15,2 70 0 0 266 0 1042,9
76 El Refugio 31-08-2026 19:00 17,2 63 0 0 266 0 1042,8
75 El Refugio 31-08-2026 18:45 17,2 63 0 0 266 0 1042,8
74 El Refugio 31-08-2026 18:30 18,2 59 0 0 266 0 1043
73 El Refugio 31-08-2026 18:15 19,2 54 0 0 266 5 1043
72 El Refugio 31-08-2026 18:00 20,6 51 0 0 266 53 1043
71 El Refugio 31-08-2026 17:45 20,6 51 0 0 266 53 1043
70 El Refugio 31-08-2026 17:30 20,4 48 0 0 266 111 1043
69 El Refugio 31-08-2026 17:15 21 47 0 0 266 172 1043
68 El Refugio 31-08-2026 17:00 20,9 50 0 0 227 287 1043
67 El Refugio 31-08-2026 16:45 20,9 50 0 0 227 287 1043
66 El Refugio 31-08-2026 16:30 20,3 47 0 0 227 338 1042,9
65 El Refugio 31-08-2026 16:15 20,4 47 0 0 225 385 1042,9
64 El Refugio 31-08-2026 16:00 20,6 47 0 0 225 473 1043
63 El Refugio 31-08-2026 15:45 20,6 47 0 0 225 473 1043
62 El Refugio 31-08-2026 15:30 20,4 51 0 0 225 515 1043,1
61 El Refugio 31-08-2026 15:15 20,2 49 0 0 227 550 1043,3
60 El Refugio 31-08-2026 15:00 19,7 48 0 0 199 615 1043,9
59 El Refugio 31-08-2026 14:45 19,7 48 0 0 199 615 1043,9
58 El Refugio 31-08-2026 14:30 19,4 51 0 0 317 647 1044
57 El Refugio 31-08-2026 14:15 19,2 51 0 0 313 671 1044,2
56 El Refugio 31-08-2026 14:00 18,4 53 0 0 40 679 1044,5
55 El Refugio 31-08-2026 13:45 18,4 53 0 0 40 679 1044,5
54 El Refugio 31-08-2026 13:30 18,6 53 0 0 267 858 1044,9
53 El Refugio 31-08-2026 13:15 18,2 61 0 0 269 1009 1045
52 El Refugio 31-08-2026 13:00 16,8 67 0 0 269 766 1045,4
51 El Refugio 31-08-2026 12:45 16,8 67 0 0 269 766 1045,4
50 El Refugio 31-08-2026 12:30 16,2 68 0 0 269 742 1045,6
49 El Refugio 31-08-2026 12:15 15,6 70 0 0 275 744 1045,9
48 El Refugio 31-08-2026 12:00 14,8 74 0 0 328 587 1046,3
47 El Refugio 31-08-2026 11:45 14,8 74 0 0 328 587 1046,3
46 El Refugio 31-08-2026 11:30 14,2 76 0 0 328 367 1046,4
45 El Refugio 31-08-2026 11:15 13,9 76 0 0 314 492 1046,5
44 El Refugio 31-08-2026 11:00 12,9 81 0 0 356 529 1046,5
43 El Refugio 31-08-2026 10:45 12,9 81 0 0 356 529 1046,5
42 El Refugio 31-08-2026 10:30 12,2 84 0 0 346 638 1046,4
41 El Refugio 31-08-2026 10:15 11,8 89 0 0 346 200 1046,2
40 El Refugio 31-08-2026 10:00 10,7 92 0 0 346 206 1046,5
39 El Refugio 31-08-2026 09:45 10,7 92 0 0 346 206 1046,5
38 El Refugio 31-08-2026 09:30 10,6 94 0 0 346 178 1046,3
37 El Refugio 31-08-2026 09:15 10,4 95 0 0 346 141 1046,2
36 El Refugio 31-08-2026 09:00 10,1 94 0 0 346 58 1045,9
35 El Refugio 31-08-2026 08:45 10,1 94 0 0 346 58 1045,9
34 El Refugio 31-08-2026 08:30 9,9 94 0 0 346 35 1045,6
33 El Refugio 31-08-2026 08:15 9,8 94 0 0 346 21 1045,3
32 El Refugio 31-08-2026 08:00 9,6 94 0 0 346 19 1044,9
31 El Refugio 31-08-2026 07:45 9,6 94 0 0 346 19 1044,9
30 El Refugio 31-08-2026 07:30 9,4 94 0 0 346 7 1044,9
29 El Refugio 31-08-2026 07:15 9,4 94 0 0 346 0 1044,6
28 El Refugio 31-08-2026 07:00 9,4 94 0 0 346 0 1044,2
27 El Refugio 31-08-2026 06:45 9,3 93 0 0 346 0 1044
26 El Refugio 31-08-2026 06:30 9,4 93 0 0 346 0 1044
25 El Refugio 31-08-2026 06:15 9,5 93 0 0 346 0 1043,9
24 El Refugio 31-08-2026 05:45 9,4 93 0 0 346 0 1043,8
23 El Refugio 31-08-2026 05:30 9,5 93 0 0 346 0 1043,8
22 El Refugio 31-08-2026 05:15 9,6 93 0 0 346 0 1043,8
21 El Refugio 31-08-2026 05:00 9,6 93 0 0 346 0 1043,6
20 El Refugio 31-08-2026 04:45 9,6 92 0 0 346 0 1043,3
19 El Refugio 31-08-2026 04:30 9,7 92 0 0 346 0 1043,4
18 El Refugio 31-08-2026 04:15 9,8 92 0 0 346 0 1043,5
17 El Refugio 31-08-2026 04:00 9,8 92 0,2 0 346 0 1043,4
16 El Refugio 31-08-2026 03:45 9,8 92 0 0 346 0 1043,3
15 El Refugio 31-08-2026 03:30 9,8 91 0,2 0 346 0 1043,4
14 El Refugio 31-08-2026 03:15 10,1 91 0,4 0 346 0 1043,6
13 El Refugio 31-08-2026 03:00 10,2 91 0,4 0 346 0 1043,6
12 El Refugio 31-08-2026 02:45 10,2 91 0,6 0 346 0 1043,4
11 El Refugio 31-08-2026 02:30 10,3 91 0,4 0 346 0 1043,2
10 El Refugio 31-08-2026 02:15 10,3 90 0,4 0 346 0 1043
9 El Refugio 31-08-2026 02:00 10,4 90 0,4 0 346 0 1042,9
8 El Refugio 31-08-2026 01:45 10,6 89 0,4 0 346 0 1042,7
7 El Refugio 31-08-2026 01:30 10,7 89 0,2 0 324 0 1042,4
6 El Refugio 31-08-2026 01:15 10,8 88 0,2 0 324 0 1042,3
5 El Refugio 31-08-2026 01:00 10,9 88 0,2 0 324 0 1042,2
4 El Refugio 31-08-2026 00:45 10,9 87 0 0 277 0 1042,2
3 El Refugio 31-08-2026 00:30 11 85 0 0 277 0 1042
2 El Refugio 31-08-2026 00:15 11,2 84 0 0 277 0 1041,8
1 El Refugio 31-08-2026 00:00 11,4 84 0 0 277 0 1041,9